Starlink 33823

operational
NORAD ID: 63661 Int'l Des: 2025-083 Owner: SPXS Country: US Constellation: starlink
LEOCIRCULAR

Starlink 33823について

説明を読み込み中...

リアルタイム位置

3D地球を読み込み中...

次回通過

高度履歴

Altitude vs Time

uPlot chart will show altitude changes over time

軌道要素

1 63661U 25083AD 25306.43488888 .00035240 00000-0 12831-2 0 9998
2 63661 43.0014 3.9877 0001367 283.6374 76.4325 15.27603637 30639
Epoch: Nov 2, 2025 • Age: 23 hours

現在のステータス

高度 494.8 km
速度 7.62 km/s
衛星直下点 -42.09°S, 96.68°E
打ち上げ日 Apr 25, 2025
運用期間 0.5 years
タイプ internet

技術仕様

分類 Payload
質量 575.00 kg
乾燥質量 530.00 kg
総質量 575.00 kg
長さ 0.30 m
直径 4.10 m
スパン 29.00 m
形状 Box + pan
製造者 SPXS
バスタイプ Starlink V2MO
フェーズステータス In Orbit
所有者/国 SPXS/US

大規模コンステレーション

Loading constellations...